Theta_e
293 295 295 296 296 296 297 298 300 299 299 299 299 301 300 299 298 297 292 295 292 286 285 284 284 284 292 293 287 288 290 289 287 286 286 286 285 284 286 287 286 285 284 284 286 284 280 293 291 289 295 294 294 295
293 294 294 295 296 297 298 299 299 299 299 299 300 300 299 299 298 297 291 294 295 287 286 286 285 285 285 286 291 291 292 290 294 288 287 287 283 284 286 282 289 286 290 287 288 288 294 294 295 297 298 296 295 296
292 293 294 296 297 297 298 299 299 299 299 300 299 299 299 298 297 296 291 291 293 285 286 286 283 286 289 288 291 292 293 293 292 297 289 286 284 289 285 287 287 289 292 291 289 291 292 293 291 293 294 294 295 295
292 293 293 294 296 297 298 298 298 299 299 299 299 298 297 297 296 294 290 291 292 287 283 284 289 285 288 292 295 295 294 294 294 294 289 286 286 288 290 290 292 290 290 288 288 287 290 292 292 292 292 292 291 292
292 292 293 293 295 295 295 297 297 298 298 298 298 297 296 296 295 294 293 292 291 287 283 284 286 287 288 290 293 294 294 293 291 288 287 285 286 287 285 290 289 290 290 288 289 291 293 293 292 292 290 290 289 287
292 292 293 293 294 295 294 295 296 297 297 297 297 297 297 295 292 293 285 292 292 288 285 281 286 285 285 287 287 287 289 289 289 287 285 285 285 288 286 286 286 289 290 291 292 295 293 293 292 292 290 289 289 287
291 292 292 293 293 294 294 295 295 296 297 297 297 297 296 295 293 286 284 288 291 289 285 281 282 285 285 285 284 285 287 285 287 285 284 285 284 287 287 285 285 288 290 290 290 289 286 289 287 288 287 284 282 280
291 292 292 292 293 293 293 294 295 296 296 295 294 294 293 293 293 287 290 291 290 286 285 280 280 283 284 282 281 283 284 284 282 284 285 283 285 287 281 280 279 280 287 285 285 288 288 286 284 282 282 281 279 278
291 291 292 292 292 293 293 293 294 295 294 293 292 291 291 287 284 285 290 290 289 285 279 278 276 277 283 282 283 283 285 279 284 281 281 283 281 272 270 272 272 271 274 278 281 282 282 281 280 280 280 279 277 276
289 289 290 292 292 292 293 293 293 293 293 292 290 286 283 284 288 287 284 284 280 280 280 275 275 277 280 281 279 281 281 277 276 277 281 278 269 269 268 267 267 268 270 272 279 277 278 277 278 276 275 276 276 273
288 289 289 290 292 292 291 291 291 291 291 286 283 282 286 285 285 280 275 274 273 275 275 274 274 277 280 278 277 277 276 276 275 275 277 276 271 266 266 264 264 265 267 267 271 274 277 278 275 272 270 269 269 268
288 288 289 289 290 291 291 291 290 286 283 284 284 283 284 278 278 274 268 271 271 270 272 274 275 276 280 279 280 277 275 276 272 275 277 273 265 262 261 261 261 261 263 263 264 265 265 266 268 267 266 264 263 263
287 288 288 288 289 291 290 289 290 288 286 285 282 275 275 272 268 269 267 270 270 267 270 272 276 275 280 279 276 276 273 271 274 274 271 266 262 260 258 258 260 260 261 261 262 262 262 261 260 262 261 261 262 260
285 286 287 287 288 288 288 286 285 284 281 274 273 266 267 267 265 264 265 265 266 267 268 269 275 274 275 274 272 272 269 270 271 270 269 263 258 257 257 257 257 257 258 258 259 260 260 260 258 257 257 258 260 259
285 285 286 286 286 287 286 282 279 272 271 268 270 263 263 262 262 261 261 262 265 265 268 274 275 276 273 271 270 270 270 269 269 268 263 259 256 256 256 255 255 255 255 256 257 258 258 259 259 257 256 256 257 258
284 282 283 285 283 282 282 277 272 270 263 263 258 265 263 265 265 263 261 264 264 263 266 271 273 272 269 269 270 266 269 268 265 260 258 258 255 254 254 254 254 254 255 256 256 256 257 256 256 256 256 255 255 255
280 276 284 285 284 278 278 272 269 261 261 261 258 257 257 260 259 259 258 261 262 264 271 272 269 267 270 269 267 262 264 260 257 256 256 255 254 253 252 253 253 253 254 254 254 254 254 255 255 257 258 256 254 255
276 279 282 282 277 274 267 267 264 263 258 259 260 258 258 257 259 261 259 260 261 264 269 268 270 269 265 266 266 258 257 255 255 255 255 254 253 252 252 252 252 252 253 253 253 253 254 255 257 257 255 255 255 256
279 279 280 279 274 268 266 263 265 259 257 258 259 259 258 259 259 259 259 260 261 262 263 269 267 264 260 257 257 256 255 254 255 255 254 253 252 251 251 252 252 253 252 252 253 254 254 253 253 254 254 254 255 256
278 279 278 276 274 269 263 261 266 263 260 259 260 260 259 259 257 258 259 258 261 263 258 259 256 255 255 254 253 253 253 253 252 254 255 254 253 250 252 251 252 251 252 253 253 252 254 255 255 254 254 253 253 254
273 273 274 270 265 262 258 258 259 259 261 260 257 258 260 259 258 257 258 257 260 254 257 253 254 253 251 251 251 250 251 251 252 252 253 253 253 252 252 253 251 251 251 252 252 254 252 253 255 254 253 253 253 253
268 272 267 268 264 262 258 257 258 258 260 258 259 258 257 258 256 256 255 259 255 254 253 254 253 252 252 251 250 248 249 247 248 249 249 249 251 253 253 253 250 251 252 252 253 252 253 254 253 253 252 253 253 253
266 266 262 261 262 260 255 259 258 255 259 257 259 259 257 256 256 256 256 254 255 253 251 250 249 247 247 247 244 246 245 245 249 251 251 251 251 251 250 251 251 250 251 253 254 253 253 253 252 251 253 253 253 253
260 252 253 253 256 254 256 254 257 257 256 254 255 256 254 252 252 258 257 257 256 251 250 250 248 251 249 245 250 252 250 246 248 250 250 248 250 252 252 252 252 251 251 252 252 252 252 252 251 252 252 252 252 251
258 248 250 250 252 253 252 253 252 255 253 250 253 255 252 249 256 256 257 259 256 255 254 249 249 250 252 253 253 252 246 248 251 251 253 251 251 251 252 252 252 252 253 250 250 251 251 251 251 250 251 250 250 249
247 243 247 247 248 251 248 251 249 248 248 251 251 250 248 252 254 256 258 258 256 256 255 253 254 253 252 250 252 253 253 248 248 248 252 251 250 250 251 250 251 253 253 251 251 251 250 250 250 249 249 249 249 248
251 248 244 240 243 244 247 245 243 247 248 248 249 249 250 252 254 258 258 255 256 256 254 254 254 253 254 254 253 252 251 247 248 252 250 249 249 250 250 249 250 253 252 249 249 249 249 249 250 250 250 250 250 250
245 243 246 244 243 241 245 244 246 247 249 244 245 248 250 253 255 259 258 255 252 249 249 250 250 251 251 252 252 251 250 248 245 245 246 247 248 249 249 249 249 254 251 251 250 249 249 249 249 249 249 249 250 251
245 238 240 242 241 244 246 248 249 247 244 245 248 250 252 253 253 253 253 249 244 246 249 252 253 247 247 247 247 247 248 247 247 248 251 254 256 256 249 249 248 249 249 249 251 253 250 248 248 249 249 249 250 251
242 236 244 241 244 249 247 242 244 237 236 237 236 240 243 245 246 247 245 245 246 249 252 251 250 248 250 249 252 251 250 248 248 251 253 255 256 253 250 250 250 250 250 249 249 250 252 253 252 251 250 251 251 251
237 238 243 244 246 245 239 234 232 232 233 235 233 236 241 241 241 244 244 247 248 247 246 249 250 248 247 249 248 250 253 252 248 248 250 252 253 252 253 253 253 252 251 250 249 249 249 249 249 248 248 248 249 249
239 241 244 246 246 238 235 238 238 239 238 237 240 234 237 240 245 253 249 245 245 248 250 249 250 254 252 253 253 253 253 255 253 251 249 250 250 252 252 253 252 252 251 250 250 249 249 248 248 249 249 249 249 249
239 237 237 241 244 244 240 239 242 243 240 241 243 241 241 243 247 253 250 248 253 255 256 255 254 253 252 251 252 253 253 254 254 257 258 257 255 255 254 254 254 253 251 251 251 250 250 249 249 249 249 249 249 250
Wind_Speed
15 17 19 20 3 3 5 8 12 13 10 7 6 6 5 4 6 1 2 4 2 1 2 2 4 4 2 4 16 12 9 2 2 4 5 5 5 7 6 13 20 13 12 8 3 5 14 7 10 14 5 3 6 5
14 17 19 21 5 5 8 12 14 12 10 8 7 7 7 5 3 3 3 1 3 3 3 1 2 1 5 5 2 13 6 17 8 7 2 5 4 5 8 9 6 9 8 8 13 8 2 14 5 4 2 6 5 5
14 15 18 17 15 9 10 14 15 13 12 10 7 8 8 9 10 5 2 3 2 3 1 2 4 4 6 4 6 3 1 5 3 3 6 5 6 4 6 4 7 4 1 4 5 6 6 13 3 6 3 4 8 5
13 14 17 16 18 18 13 14 15 14 13 13 12 15 16 17 15 8 4 3 3 2 2 2 4 4 12 11 5 3 2 4 5 3 4 4 5 3 3 5 3 2 10 7 1 2 5 3 4 9 7 9 10 8
16 13 14 11 15 18 16 11 17 15 14 14 12 9 8 8 10 7 5 6 5 2 1 2 4 5 13 11 10 10 4 5 3 4 5 3 4 4 1 2 4 6 6 9 6 11 7 10 13 11 9 7 8 10
18 14 13 13 13 13 10 9 15 13 12 11 10 9 8 3 1 0 3 2 9 4 1 2 1 5 10 10 14 13 8 6 4 4 4 3 2 2 5 3 2 3 3 6 2 8 6 11 12 9 12 11 9 8
18 19 16 15 15 12 9 10 11 12 12 14 16 17 18 17 6 5 3 6 13 3 2 1 2 5 7 5 4 4 7 6 5 3 3 2 2 3 2 3 4 6 4 5 10 11 10 6 7 11 14 14 12 11
18 20 20 16 14 14 8 6 9 10 13 10 11 11 11 8 6 4 2 15 6 2 2 2 2 1 8 5 3 5 3 3 5 3 2 2 1 2 5 8 10 14 6 9 9 5 9 15 15 13 12 13 13 10
24 24 25 22 16 14 10 7 8 10 11 8 7 5 3 7 5 4 23 13 2 4 3 3 5 4 7 4 3 3 3 4 2 3 3 1 3 5 6 7 10 12 9 10 7 8 12 15 14 12 12 10 13 9
25 25 24 25 21 16 17 15 14 10 10 8 6 4 3 3 16 12 4 5 6 6 5 4 1 4 6 5 4 3 3 3 3 3 3 4 4 8 10 9 9 12 13 14 2 6 8 11 11 9 9 8 8 8
22 24 24 24 21 21 16 9 9 7 11 4 4 2 2 10 2 4 4 6 5 4 5 3 3 4 5 4 3 5 2 2 3 3 2 2 4 4 9 11 11 13 12 12 10 11 11 9 11 11 10 9 8 8
23 24 22 22 23 20 21 15 11 6 3 2 2 1 1 6 4 6 3 3 7 5 6 4 4 4 3 3 0 3 3 1 3 2 0 3 3 6 8 9 11 12 12 12 13 13 14 14 11 10 9 8 7 7
20 22 22 20 20 20 21 17 12 7 2 1 3 5 6 5 8 6 4 3 2 7 6 5 3 3 2 3 4 2 4 3 2 2 3 4 4 6 7 7 7 10 10 11 13 14 13 12 12 10 8 7 7 7
14 17 21 19 17 17 18 18 16 6 5 5 5 7 6 4 5 3 3 3 4 4 7 6 2 4 2 3 3 4 2 2 2 2 3 3 4 4 6 7 6 8 10 11 12 11 11 10 9 8 8 6 5 6
10 12 19 18 15 17 15 13 15 8 6 6 5 6 5 1 1 3 3 4 3 6 6 2 1 2 4 4 4 2 1 3 3 3 3 3 4 4 6 6 6 7 8 8 8 8 8 7 6 6 6 5 5 4
11 6 11 16 15 19 13 9 8 4 6 5 11 3 3 2 3 4 5 4 6 7 5 3 3 3 6 3 3 4 2 3 2 3 3 2 4 5 5 6 6 6 7 6 6 6 6 6 5 4 3 4 4 4
10 5 23 18 15 9 21 6 5 10 6 6 5 3 2 2 3 3 3 5 8 6 3 2 5 3 2 2 3 5 3 3 3 2 2 3 4 4 5 5 6 6 6 6 5 5 4 4 3 2 1 4 4 3
6 10 22 18 7 6 6 8 6 7 9 5 4 3 2 2 3 2 5 5 5 5 4 3 2 3 4 3 3 3 2 2 2 2 2 2 2 3 4 5 5 5 5 4 3 3 2 3 2 3 3 5 5 2
8 14 20 20 8 6 6 7 6 6 4 2 1 2 2 1 0 3 6 6 4 3 4 2 4 4 3 3 3 2 2 2 2 2 2 2 3 3 4 5 4 4 5 5 3 3 3 2 2 3 3 4 4 4
6 18 22 17 12 5 7 5 4 5 4 2 2 4 3 3 5 4 5 6 5 3 8 7 4 2 2 2 2 2 2 2 2 2 0 1 1 1 4 4 4 5 6 5 4 3 3 3 0 1 2 3 4 5
10 11 16 9 6 9 7 4 5 4 2 3 3 4 3 3 4 7 6 7 4 5 3 2 1 1 1 2 2 2 3 2 2 2 2 2 1 3 4 2 2 3 3 3 4 4 3 4 3 2 3 4 4 5
5 12 5 8 7 6 7 6 3 1 2 2 2 4 4 4 5 6 7 4 4 2 2 2 1 1 1 1 1 3 1 2 3 3 4 4 4 3 2 2 3 4 4 4 4 4 4 3 3 3 4 5 4 5
7 6 7 9 7 9 4 5 4 7 4 5 2 3 3 3 3 6 3 1 1 1 1 1 2 2 3 3 2 4 4 4 4 4 3 4 4 5 5 5 4 5 5 4 4 4 4 2 4 5 5 5 5 5
12 11 10 8 9 4 3 6 3 3 3 5 5 4 5 5 7 2 2 1 0 0 1 1 1 3 2 3 3 1 2 3 4 5 4 4 5 5 4 5 4 5 6 5 4 5 5 5 5 5 5 5 5 5
10 13 8 9 5 6 7 6 6 5 3 4 4 3 3 4 3 2 1 1 1 1 1 2 2 2 2 3 3 2 4 4 3 4 3 4 4 4 5 5 5 6 4 5 6 6 6 4 5 5 5 5 6 7
11 7 7 4 4 4 3 3 4 4 3 4 2 2 2 3 2 2 1 1 2 2 2 3 2 1 3 4 3 2 0 3 2 3 4 3 3 4 4 6 6 5 3 4 3 4 5 4 5 6 7 9 11 10
7 4 3 0 1 1 1 1 1 1 2 2 3 4 3 3 3 3 1 3 3 2 2 2 3 3 4 3 3 4 3 4 7 5 3 4 6 6 7 8 9 5 3 4 5 6 7 7 8 8 9 9 9 9
3 1 2 2 1 1 1 0 1 1 1 2 1 2 3 5 4 2 3 1 1 1 3 3 4 4 5 5 3 3 4 2 3 6 7 9 10 8 10 9 10 15 9 8 8 8 9 10 10 10 10 11 12 9
2 1 1 1 1 2 3 3 2 1 1 1 1 3 4 4 3 3 0 1 1 2 4 4 3 2 4 5 5 5 4 3 1 5 9 8 5 4 6 6 6 6 6 7 11 13 12 11 11 11 13 11 11 10
1 1 0 1 2 3 1 0 1 2 1 2 3 5 5 6 6 2 3 3 4 6 4 3 2 2 5 2 5 5 5 7 8 8 7 9 6 0 2 4 6 6 6 7 9 10 12 12 11 9 10 10 10 11
1 1 1 2 3 1 2 1 1 1 1 2 1 3 5 8 9 5 6 5 5 2 2 6 6 6 6 6 6 5 7 5 9 12 11 8 8 8 9 8 7 7 7 8 9 9 9 9 10 11 13 15 16 15
1 0 0 2 2 2 1 1 1 1 1 2 2 2 4 3 6 5 4 5 3 4 9 5 4 6 6 6 5 5 8 7 5 7 11 9 10 11 10 9 8 7 8 9 9 10 11 13 12 13 13 17 17 17
1 1 1 2 3 1 1 3 1 2 2 3 3 3 3 3 8 5 1 7 7 4 5 5 6 4 5 7 8 8 8 8 12 13 15 16 17 15 10 8 8 8 10 10 10 11 14 16 15 17 17 18 18 18
Wind_Direction
18 30 32 356 317 148 161 135 135 122 117 114 112 98 64 62 147 124 81 10 301 91 45 351 315 322 246 161 153 157 123 286 82 140 125 140 127 184 134 153 170 170 162 187 172 210 236 141 144 189 177 67 130 127
22 23 33 334 199 147 134 128 127 116 111 114 103 78 58 36 111 140 92 304 7 77 11 326 278 299 350 323 141 185 142 155 161 109 116 99 122 155 147 167 201 188 191 152 189 200 79 170 160 162 109 129 164 148
30 24 43 12 75 113 119 122 116 105 99 99 83 54 51 64 78 99 108 344 61 59 112 8 332 326 305 323 285 193 160 105 114 92 151 133 127 154 158 166 123 213 148 165 144 180 162 180 107 126 143 121 135 117
27 35 51 22 62 58 95 111 104 96 92 87 84 72 67 68 73 89 72 345 55 59 3 357 305 356 309 329 203 232 53 56 96 55 88 119 126 227 160 134 129 166 148 154 128 107 93 157 186 151 123 123 120 107
29 34 64 40 62 59 42 98 88 78 82 79 77 68 65 68 74 67 68 51 39 327 58 337 292 338 344 4 56 49 67 80 30 62 53 85 104 125 18 80 167 191 158 183 216 164 171 189 163 136 137 136 129 125
31 35 55 58 71 80 89 50 83 82 79 67 60 42 25 1 349 319 56 56 19 346 76 33 294 326 343 359 48 35 33 54 62 74 75 73 339 274 130 158 40 62 2 358 127 132 85 111 118 133 126 120 101 92
41 46 45 50 53 72 53 58 76 86 85 79 77 70 61 58 71 63 79 329 334 298 82 33 0 4 336 356 32 18 22 49 58 72 59 79 72 2 73 90 29 33 40 87 115 110 93 145 145 120 114 104 91 85
50 46 45 42 43 39 80 72 77 96 91 72 54 54 48 72 95 41 360 344 342 98 39 53 5 343 3 17 54 355 50 47 32 89 100 75 76 305 84 48 31 13 73 41 14 25 104 108 102 101 110 118 102 97
46 46 36 32 46 42 56 97 79 88 65 39 6 18 25 33 23 311 313 320 19 50 95 55 354 7 344 37 40 58 7 72 43 62 61 5 48 55 18 346 18 3 3 349 45 71 97 101 107 108 109 98 107 106
39 36 35 31 31 48 44 54 54 36 21 22 27 21 44 354 319 308 359 14 22 9 24 67 290 360 328 357 39 27 33 43 75 53 307 68 86 83 31 16 7 358 2 347 85 77 99 99 107 91 74 67 87 97
37 33 29 25 31 40 35 38 25 353 27 29 35 43 313 326 338 27 39 28 336 53 19 12 359 0 16 10 43 14 70 342 85 46 334 113 105 75 17 20 9 10 9 13 28 31 35 88 114 113 94 80 85 85
33 26 24 22 19 37 35 44 27 43 20 19 46 49 8 20 19 52 20 348 29 21 347 342 354 353 348 297 72 359 76 343 74 316 191 108 81 30 18 10 16 11 15 31 33 48 45 44 49 73 79 77 62 65
26 21 20 23 18 23 24 22 42 43 356 339 35 45 5 343 41 27 18 56 36 347 2 335 14 344 298 359 72 27 63 55 284 20 62 62 81 38 14 6 6 17 26 40 45 49 53 52 44 54 68 47 69 73
8 14 13 13 14 8 16 11 18 30 49 54 29 35 19 33 49 2 356 14 9 304 327 316 314 19 336 29 344 64 37 279 77 107 68 64 40 20 24 17 20 17 23 36 38 42 52 55 56 52 50 29 45 60
359 14 8 2 6 8 9 27 37 42 43 54 19 54 54 28 44 342 310 286 345 305 301 284 253 350 18 61 24 124 68 62 19 49 58 60 32 17 35 20 21 22 21 30 26 33 38 36 56 69 42 33 35 40
26 21 3 27 22 15 18 43 31 64 59 56 34 103 18 223 61 14 355 344 2 325 282 261 360 45 44 1 22 24 348 46 58 39 30 10 42 36 22 15 19 17 20 19 26 17 21 22 21 20 17 30 23 26
50 32 344 345 351 19 23 67 52 46 55 46 51 46 359 46 30 352 336 336 329 295 25 331 41 25 285 46 57 11 13 16 26 61 22 24 21 22 8 4 11 10 14 13 3 14 9 353 321 292 307 10 354 2
32 336 1 2 13 43 39 28 74 60 62 32 46 4 7 18 319 354 341 339 334 353 331 49 315 39 35 23 63 39 27 4 0 15 42 72 64 28 9 354 354 356 355 349 340 317 322 344 341 22 336 351 313 316
32 12 8 16 39 74 56 36 15 83 50 10 352 357 328 329 251 314 323 325 299 298 304 339 47 40 56 42 18 36 4 350 343 356 337 330 319 329 336 334 323 331 343 335 340 342 326 325 305 334 340 336 328 322
6 16 6 18 28 65 64 30 347 72 62 25 7 11 351 354 326 322 340 4 348 8 35 34 39 37 19 58 16 330 324 331 311 292 93 80 44 265 324 336 334 336 323 321 317 326 327 329 54 308 319 323 312 313
26 351 5 42 48 58 70 359 59 39 28 49 350 356 356 343 10 5 356 338 39 36 65 49 36 9 345 304 301 297 287 288 311 328 345 316 35 305 307 309 295 297 288 306 304 303 275 275 299 303 290 283 272 272
353 3 41 19 62 57 77 26 32 4 20 38 26 359 20 13 355 10 315 21 47 28 353 333 355 316 281 252 142 211 303 277 264 269 254 266 278 278 273 291 301 289 273 263 261 265 274 275 257 260 263 270 264 263
11 25 47 13 67 38 10 336 35 8 29 2 323 31 32 2 1 313 57 13 344 50 6 317 332 306 285 323 304 255 208 221 253 248 253 250 263 265 262 258 236 249 272 269 236 254 263 267 253 255 265 267 273 277
31 45 33 36 16 35 323 27 30 21 43 22 7 13 2 332 324 11 50 335 89 219 244 226 294 294 197 221 247 260 186 201 263 275 245 250 270 270 234 261 257 244 241 270 274 267 262 261 261 257 252 262 269 274
61 5 14 11 14 19 28 11 358 22 41 354 343 13 359 331 337 11 318 296 256 242 204 173 230 236 265 285 273 250 173 204 246 281 256 218 271 287 265 237 241 238 220 231 244 242 247 243 247 252 256 258 266 275
64 350 34 341 355 27 0 21 22 1 338 336 9 324 327 312 320 288 254 230 238 225 204 209 222 240 244 220 278 288 343 167 197 261 275 220 225 252 288 297 306 296 183 211 248 257 263 253 252 249 255 251 246 244
57 355 28 93 353 181 110 126 173 272 347 348 343 340 353 2 291 268 281 204 226 200 214 206 197 218 246 260 231 244 216 188 215 251 312 262 243 230 230 247 259 245 158 200 216 225 246 253 253 250 253 256 250 246
102 348 122 338 30 328 153 278 301 338 279 124 231 259 197 201 244 234 226 81 336 334 283 261 242 244 253 252 260 272 264 232 270 271 266 252 239 235 230 236 245 258 257 246 243 243 239 245 252 255 255 257 266 256
95 112 190 33 302 222 223 212 234 110 55 187 236 265 255 244 278 258 233 53 42 292 275 266 251 206 264 253 244 237 229 211 222 284 287 286 294 256 192 216 231 232 231 239 245 242 239 239 245 247 252 256 263 268
70 301 203 132 177 227 142 21 59 52 321 325 315 293 264 259 248 241 247 222 232 233 241 258 278 236 260 274 287 281 205 198 204 218 250 268 262 233 188 222 234 238 233 236 252 261 263 268 275 274 268 264 262 262
103 229 259 250 259 69 51 47 131 207 249 256 195 257 279 312 305 241 219 224 225 216 259 263 247 209 226 236 220 256 280 204 211 222 237 262 273 273 270 263 254 246 242 244 248 250 254 256 252 257 258 257 260 260
228 184 335 286 287 97 226 315 317 257 176 245 213 222 277 279 271 273 181 153 172 221 231 223 242 261 208 234 245 243 254 275 244 223 225 236 247 255 260 261 257 248 248 250 253 258 257 254 261 261 264 264 264 264
204 208 228 288 298 313 30 318 279 306 217 252 238 212 238 249 254 292 277 218 229 226 227 212 227 251 245 245 249 263 254 257 262 263 264 259 257 260 264 262 258 252 251 252 254 254 257 257 258 260 262 264 267 269